Location: Chillicothe
(39.7950°N, 93.5520°W)
Time: 12:50:53
(UTC-05:00)

Transit 2A - Visible Passes

Search period start: 23 October 2019 00:00
Search period end: 02 November 2019 00:00
Orbit: 600 x 958 km, 66.7° (Epoch: 23 October)

Date Brightness Start Highest point End Pass type
(mag) Time Alt. Az. Time Alt. Az. Time Alt. Az.
23 Oct 7.7 05:48:45 13° SSW 05:48:45 13° SSW 05:49:17 10° S visible
23 Oct 7.4 20:20:19 10° WSW 20:25:14 35° NW 20:29:46 10° NNE visible
24 Oct 6.8 19:45:45 10° SW 19:51:03 50° WNW 19:55:52 10° NNE visible
25 Oct 6.2 19:11:25 10° SW 19:16:54 75° WNW 19:21:52 10° NNE visible
25 Oct 8.7 20:58:56 10° WNW 21:00:46 12° NW 21:02:34 10° NNW visible
26 Oct 8.4 20:23:07 10° W 20:26:22 16° NW 20:29:29 10° N visible
27 Oct 8.1 19:47:55 10° WSW 19:52:03 23° NW 19:55:56 10° N visible
28 Oct 7.6 19:13:03 10° WSW 19:17:48 32° NW 19:22:11 10° N visible
29 Oct 7.0 18:38:27 10° SW 18:43:36 46° WNW 18:48:19 10° NNE visible
30 Oct 8.7 19:52:14 10° NW 19:53:22 11° NW 19:54:30 10° NNW visible
31 Oct 8.4 19:16:03 10° W 19:18:58 15° NW 19:21:46 10° N visible
01 Nov 8.2 18:40:44 10° W 18:44:38 21° NW 18:48:18 10° N visible
